Location: D�pe
(52.6057°N, 8.1808°E)
Time: 14:18:58
(UTC+00:00)

Daily predictions for brighter satellites

Satellite Brightness Start Highest point End
(mag) Time Altitude Azimuth Time Altitude Azimuth Time Altitude Azimuth
ATLAS 2AS CENTAUR R/B 3.6 16:23:45 10° NW 16:31:02 40° NNE 16:37:51 10° E
Cosmos 2082 4.3 16:28:21 10° NNW 16:33:42 38° NE 16:39:00 10° ESE
Lacrosse 5 2.3 16:30:32 10° W 16:35:31 54° N 16:40:30 10° ENE
Cosmos 2278 Rocket 4.4 16:34:13 10° NW 16:36:55 13° NNW 16:39:38 10° NNE
Cosmos 1953 Rocket 3.7 16:33:15 10° N 16:37:37 57° ENE 16:42:00 10° SSE
AQUARIUS 4.1 16:34:51 10° SSE 16:39:19 75° ENE 16:43:51 10° NNW
Cosmos 968 Rocket 3.8 16:36:20 10° NNW 16:41:24 47° NE 16:46:24 10° SE
GEOS 3 Rocket 4.4 16:37:24 10° E 16:42:17 36° NNE 16:47:12 10° NW
Cosmos 1408 4.0 16:39:43 10° NNE 16:42:19 18° ENE 16:44:55 10° ESE
GENESIS II 4.4 16:39:43 10° SSW 16:43:43 63° SE 16:47:44 10° NE
ERBS 3.2 16:44:33 10° WNW 16:47:42 37° N 16:50:48 10° ENE
Cosmos 2058 Rocket 3.8 16:43:54 10° SSE 16:47:55 33° E 16:51:58 10° NNE
FALCON 9 DEB 4.0 16:45:50 10° SW 16:48:47 32° SSE 16:51:36 11° E
NOAA 12 4.2 16:44:00 10° SSE 16:49:18 88° WSW 16:54:41 10° NNW
Feng Yun 1-1 Rocket 4.5 16:43:35 10° SE 16:49:22 59° ENE 16:55:12 10° N
ADEOS Rocket 3.3 16:43:27 10° NNE 16:49:53 89° ESE 16:57:01 10° SSW
CZ-4B R/B 3.5 16:45:13 10° S 16:50:47 75° WSW 16:56:18 10° NNW
Cosmos 1689 Rocket 3.8 16:50:20 10° NE 16:52:06 15° E 16:53:52 10° SE
USA 281 3.5 16:48:11 10° SSE 16:54:45 74° WSW 17:01:22 10° NNW
FALCON 9 DEB 3.1 16:53:07 10° W 16:56:34 88° NNE 16:59:43 12° E
Cosmos 2227 Rocket 2.2 16:52:03 10° NNW 16:57:45 77° ENE 17:03:25 10° SE
IRS-1C Rocket 4.2 16:52:41 10° SE 16:57:48 53° ENE 17:02:57 10° N
CZ-4C R/B 3.5 16:52:25 10° NW 16:58:11 35° NNE 17:04:27 12° ENE
FALCON 9 DEB 3.8 16:55:18 10° SW 16:58:19 38° SSE 17:00:47 14° E
Cosmos 1892 3.2 16:54:53 10° N 16:58:31 37° ENE 17:02:09 10° SE
Cosmos 2263 Rocket 3.4 16:54:46 10° NNW 16:59:23 24° NE 17:03:24 12° E
Cosmos 1908 4.4 16:57:08 10° SSW 17:00:51 46° WNW 17:04:39 10° N
Cosmos 1110 Rocket 4.0 16:56:50 10° SSW 17:02:05 90° SE 17:07:20 10° NNE
Cosmos 1939 Rocket 3.0 16:59:05 10° SE 17:02:52 48° ENE 17:06:39 10° N
Cosmos 1302 Rocket 4.2 16:59:04 10° S 17:04:08 50° ESE 17:09:15 10° NNE
H-2A R/B 2.4 17:00:31 10° N 17:04:39 64° WNW 17:08:43 10° SSW
USA 307 3.1 17:01:32 10° WNW 17:05:50 71° SSW 17:10:05 10° ESE
COSMO-SKYMED 1 3.2 17:02:25 10° NNE 17:06:23 33° E 17:10:19 10° SSE
Landsat 5 4.4 17:04:08 10° N 17:07:52 47° WNW 17:11:42 10° SW
SAR-Lupe-4 4.1 17:04:48 10° NNE 17:08:10 37° E 17:11:31 10° SSE
USA 308 3.2 17:06:31 10° WNW 17:10:48 68° SSW 17:15:02 10° ESE
Cosmos 1486 Rocket 4.0 17:05:46 10° NNW 17:11:09 77° ENE 17:16:28 10° SSE
Cosmos 1300 2.6 17:08:09 10° S 17:11:58 83° E 17:15:49 10° NNE
CZ-4B R/B 1.2 17:09:01 10° NNE 17:12:15 66° ESE 17:15:22 10° S
Cosmos 1400 Rocket 2.9 17:09:39 10° S 17:13:39 53° E 17:17:38 10° NNE
Cosmos 1825 3.2 17:10:55 10° N 17:14:08 26° ENE 17:17:20 10° SE
Cosmos 1697 Rocket 3.6 17:10:39 10° SSE 17:15:16 27° ESE 17:19:39 11° NE
ERS-2 2.0 17:12:22 10° NNE 17:16:02 79° ESE 17:19:41 10° SSW
Helios 1A Rocket 3.0 17:16:11 10° SE 17:20:12 53° ENE 17:24:12 10° N
Cosmos 1503 Rocket 4.0 17:16:11 10° NNW 17:21:20 58° ENE 17:26:32 10° SE
BREEZE-M TANK 4.3 17:13:07 10° W 17:21:50 41° SSW 17:25:00 13° ESE
Meteor 2-8 Rocket 4.4 17:15:59 10° S 17:22:00 63° E 17:28:06 10° NNE
YAOGAN 1 2.9 17:18:31 10° SE 17:22:36 42° ENE 17:26:42 10° N
S3M 4.3 17:17:39 10° SSE 17:23:18 41° E 17:29:03 10° NNE
CZ-4 R/B 4.4 17:19:28 10° SSE 17:23:34 64° ENE 17:27:44 10° N
Cosmos 1340 2.8 17:21:38 10° NNW 17:25:25 75° W 17:29:11 10° S
SAR-Lupe-1 4.1 17:22:31 10° NNE 17:26:04 54° ESE 17:29:33 10° S
CZ-2D R/B 3.1 17:24:26 10° SSE 17:28:12 65° ENE 17:32:00 10° N
Cosmos 1812 Rocket 4.5 17:25:05 10° SE 17:28:43 26° E 17:32:22 10° NNE
Cosmos 44 3.2 17:24:23 10° SW 17:28:58 84° NW 17:33:26 12° NE
Okean O Rocket 3.4 17:25:39 10° SSW 17:29:39 35° W 17:33:40 10° NNW
Cosmos 2228 3.8 17:26:14 10° SSW 17:30:24 53° WNW 17:34:39 10° N
CZ-4 R/B 1.3 17:27:14 10° SSE 17:31:01 54° ENE 17:34:48 10° N
Cosmos 1726 Rocket 3.9 17:26:52 10° SSW 17:31:13 68° WNW 17:35:38 10° N
Cosmos 1346 Rocket 2.7 17:29:15 10° N 17:33:16 68° ENE 17:37:14 10° SSE
Cosmos 2058 2.8 17:29:56 10° N 17:34:01 63° ENE 17:38:05 10° SSE
Cosmos 1354 Rocket 4.0 17:28:56 10° NNW 17:34:10 64° ENE 17:39:25 10° SE
SL-4 R/B 1.9 17:30:59 10° W 17:34:30 64° SSW 17:36:33 24° ESE
Aureole 3 2.5 17:33:48 10° S 17:36:48 86° W 17:39:50 10° N
Cosmos 2151 3.8 17:33:15 10° N 17:36:54 27° ENE 17:37:31 26° E
Cosmos 2297 Rocket 3.1 17:31:40 10° NW 17:37:10 52° WSW 17:42:38 10° S
Cosmos 2369 Rocket 4.3 17:34:19 10° WNW 17:38:30 20° NNW 17:42:43 10° NNE
PSLV R/B 4.0 17:34:28 10° NNE 17:38:34 53° E 17:42:37 10° S
In-Cosmos 22 Rocket 4.3 17:33:20 10° NNW 17:38:42 74° W 17:44:08 10° S
Cosmos 1980 Rocket 3.2 17:34:40 10° SSE 17:38:58 23° ESE 17:39:22 23° E
Timation 1 Rocket 4.3 17:34:22 10° NNW 17:40:25 68° NE 17:46:17 11° SE
Cosmos 1992 Rocket 4.3 17:35:48 10° S 17:40:41 43° ESE 17:45:23 11° NE
CZ-2C R/B 3.2 17:39:08 10° SSE 17:44:50 68° ENE 17:50:21 10° N
CSL-04 Debris 4.2 17:40:03 10° SE 17:45:21 56° ENE 17:50:43 10° N
Cosmos 1315 Rocket 3.0 17:43:39 10° SSE 17:47:26 44° E 17:51:18 10° NNE
Cosmos 1553 Rocket 3.9 17:45:14 10° S 17:51:35 84° E 17:57:51 10° NNE
Cosmos 220 Rocket 4.1 17:48:54 10° S 17:53:10 55° ESE 17:55:51 22° NE
Ariane Rocket 3.9 17:53:41 27° ENE 17:54:02 28° ENE 17:58:18 10° N
SKYMED 2 3.5 17:50:15 10° NNE 17:54:39 90° SW 17:58:59 10° SSW
BREEZE-M R/B 3.9 17:51:03 10° W 17:54:53 59° S 17:59:00 24° ESE
Meteor 2-15 4.3 17:49:06 10° S 17:55:12 73° E 18:01:20 10° NNE
USA 305 3.9 17:51:22 10° WNW 17:55:27 42° SSW 17:58:11 19° SSE
Meteor 2-10 Rocket 3.4 17:52:08 10° S 17:57:20 69° E 18:02:24 10° NNE
Cosmos 1455 2.1 17:55:32 10° S 17:59:16 60° E 18:03:03 10° NNE
NOSS 3-4 (A) 3.7 17:54:11 10° NW 18:00:59 73° NE 18:05:39 25° ESE
NOSS 3-4 (C) 3.7 17:54:18 10° NW 18:01:05 73° NE 18:05:43 25° ESE
USA 306 4.1 17:57:55 10° WNW 18:01:55 38° SW 18:04:25 20° SSE
Cosmos 2360 4.5 17:56:32 10° S 18:01:56 45° ESE 18:04:36 27° NE
SeaSat 1 2.6 18:00:38 34° ESE 18:02:28 52° NE 18:07:16 10° NNW
Cosmos 1943 Rocket 4.5 18:02:27 10° NW 18:05:09 14° NNW 18:07:52 10° NNE
H-2A R/B 2.1 17:59:52 10° SSE 18:05:16 72° ENE 18:10:44 10° NNW
Okean-O 3.0 18:02:17 10° S 18:06:42 65° WSW 18:11:08 10° NNW
MOS 1 Rocket 3.5 18:02:32 10° NNE 18:07:05 48° E 18:11:54 10° S
FALCON 9 DEB 2.9 18:04:47 10° WSW 18:07:57 79° S 18:07:57 79° S
FALCON 9 DEB 2.9 18:06:45 10° WSW 18:09:47 77° SW 18:09:47 77° SW
Cosmos 2278 4.0 18:06:58 10° S 18:12:13 40° ESE 18:12:45 39° E
NOSS 3-3 (A) 4.0 18:07:12 10° SSW 18:13:00 60° SE 18:16:10 30° ENE
NOSS 3-3 (C) 4.0 18:07:20 10° SSW 18:13:07 59° SE 18:16:14 31° ENE
Aureole 3 Rocket 4.4 18:08:46 10° SSW 18:13:08 52° WNW 18:19:18 10° N
USA 215 3.3 18:10:10 32° E 18:13:20 68° NNE 18:19:50 10° WNW
Cosmos 1745 Rocket 4.3 18:08:01 10° NNW 18:14:18 71° W 18:20:35 10° S
ATLAS 5 CENTAUR R/B 3.5 18:11:45 10° NW 18:15:41 24° N 18:17:33 20° NNE
Cosmos 1408 3.7 18:14:03 10° NNW 18:17:35 45° W 18:21:06 10° SSW
Cosmos 2082 4.4 18:12:28 10° NW 18:18:03 54° WSW 18:23:36 10° S
COSMOS 2455 4.2 18:13:20 10° NW 18:18:12 24° NNE 18:19:43 22° NE
Meteor 2-3 Rocket 3.9 18:12:48 10° N 18:18:23 49° ENE 18:19:36 42° ESE
Lacrosse 5 2.0 18:14:01 10° WNW 18:19:03 60° NNE 18:20:11 47° ENE
GEOS 3 Rocket 3.6 18:17:20 32° SE 18:19:58 86° SW 18:25:25 10° NW
Cosmos 44 Rocket 3.7 18:15:59 10° SSW 18:19:58 42° SE 18:19:58 42° SE
ARGOS 3.0 18:17:21 20° SSE 18:21:07 74° ENE 18:26:34 10° NNW
HJ-1C 3.9 18:23:12 51° NNW 18:23:12 51° NNW 18:25:51 10° NNW
ATLAS 2AS CENTAUR R/B 2.8 18:15:25 10° NW 18:23:07 77° NE 18:26:17 37° ESE
Cosmos 1689 Rocket 3.7 18:21:51 19° NNW 18:23:24 33° WNW 18:26:03 10° SW
Cosmos 2278 Rocket 4.2 18:20:58 10° NNW 18:23:40 13° NNE 18:24:58 13° NNE
ERBS 3.1 18:21:04 10° WNW 18:23:42 44° NNW 18:23:42 44° NNW
FALCON 9 DEB 3.7 18:21:27 10° WSW 18:24:00 53° WSW 18:24:00 53° WSW
Cosmos 1656 4.0 18:19:49 10° SW 18:25:23 65° NW 18:30:38 12° NNE
SL-08 RB Rocket 3.8 18:26:12 55° NE 18:26:12 55° NE 18:30:17 10° N
Cosmos 1844 Rocket 3.9 18:27:05 10° NNW 18:31:40 26° NE 18:31:40 26° NE
Cosmos 1076 Rocket 4.4 18:27:49 10° NNW 18:31:56 49° W 18:36:02 10° SSW
FALCON 9 DEB 4.4 18:30:12 10° W 18:32:58 37° SW 18:32:58 37° SW
FALCON 9 DEB 4.3 18:30:59 10° W 18:33:07 39° W 18:33:07 39° W
SJ 16-02 3.0 18:31:39 10° N 18:33:44 22° NNE 18:33:44 22° NNE
Cosmos 2369 3.6 18:30:52 10° SSW 18:36:35 82° ESE 18:39:11 34° NE
Cosmos 1777 Rocket 3.8 18:32:16 10° NNW 18:37:32 86° ENE 18:38:35 58° SSE
Cosmos 2184 Rocket 4.2 18:34:16 10° N 18:40:25 50° ENE 18:40:25 50° ENE
Cosmos 2227 Rocket 4.5 18:36:55 10° NW 18:41:14 23° WSW 18:45:32 10° SSW
COSMO-SKYMED 1 4.2 18:38:36 10° N 18:42:33 34° WNW 18:46:29 10° SW
CSL-04 Rocket 4.1 18:37:07 10° S 18:42:37 63° WSW 18:48:05 10° NNW
Meteor 2-17 Rocket 4.3 18:37:31 10° N 18:43:35 67° ENE 18:44:33 58° SE
Cosmos 1709 Rocket 4.2 18:37:26 10° NNW 18:43:48 73° W 18:50:09 10° S
Cosmos 2263 Rocket 2.1 18:38:26 10° NNW 18:44:11 82° ENE 18:45:08 63° SE
CZ-4C R/B 2.9 18:41:10 10° NW 18:47:54 66° NE 18:49:38 52° E
Cosmos 1825 3.9 18:46:16 10° NNW 18:49:41 32° W 18:52:23 14° SSW
Cosmos 2074 Rocket 3.9 18:52:10 10° N 18:58:06 65° ENE 18:58:06 65° ENE
Cosmos 1697 Rocket 3.0 18:53:14 10° SW 18:58:49 66° NW 19:01:26 32° NNE
CZ-4 R/B 4.1 19:03:46 10° SW 19:06:23 17° W 19:09:00 10° NW
Resurs 01 Rocket 4.1 19:11:38 13° N 19:11:38 13° N 19:12:06 10° N
Cosmos 2315 Rocket 4.1 19:06:10 10° SSW 19:12:21 71° WNW 19:18:35 10° N
SL-4 R/B 4.2 19:10:38 10° W 19:12:08 19° WSW 19:12:08 19° WSW
Cosmos 2151 4.4 19:10:23 10° NNW 19:14:07 36° W 19:14:07 36° W
Cosmos 1980 Rocket 2.6 19:16:47 10° SW 19:21:13 56° SW 19:21:13 56° SW
Ariane Rocket 3.9 19:33:54 46° NW 19:33:54 46° NW 19:37:46 10° NNW
SeaSat 1 3.9 19:40:26 33° WSW 19:40:26 33° WSW 19:44:39 10° NW
H-2A R/B 4.3 19:41:02 10° SW 19:45:13 22° W 19:49:28 10° NW
USA 215 3.6 19:57:31 60° W 19:57:31 60° W 20:02:57 10° WNW
ATLAS 5 CENTAUR R/B 3.9 19:56:49 10° NW 19:59:05 24° NNW 19:59:05 24° NNW
Lacrosse 5 3.8 19:57:07 10° WNW 19:59:23 26° WNW 19:59:23 26° WNW
COSMOS 2455 4.2 19:59:28 10° NW 20:02:51 33° NNW 20:02:51 33° NNW
Cosmos 2278 Rocket 4.3 20:04:50 10° NNW 20:06:48 19° N 20:06:48 19° N
ATLAS 2AS CENTAUR R/B 3.9 20:06:58 10° NW 20:13:33 35° WSW 20:13:44 35° WSW
SJ 16-02 4.3 20:10:06 10° NW 20:10:42 14° NW 20:10:42 14° NW
Cosmos 1844 Rocket 4.4 20:10:45 10° NNW 20:13:19 28° NNW 20:13:19 28° NNW
Cosmos 2263 Rocket 4.3 20:23:19 10° NW 20:26:50 21° W 20:26:50 21° W
CZ-4C R/B 3.8 20:29:45 10° NW 20:34:49 42° W 20:34:49 42° W
